[[{"header":{"parameterUnit":"m.s-1","parameterCategory":1,"la1":30.2991,"la2":30.254,"lo1":-89.0895,"lo2":-89.0444,"dy":0.0017,"dx":0.0017,"nx":28,"ny":28,"refTime":"2024-12-19T03:00:00:Z","depth":0,"parameterNumber":2,"parameterNumberName":"U-component_of_WINDS"},"data":[0,0,0,0,0,0,0,0,0,0,0,0,0,0,0,0,0,0,0,0,0,0,0,0,0,0,0,0,0,0,0,0,0,0,0,0,0,0,0,0,0,0,0,0,0,0,0,0,0,0,0,0,0,0,0,0,0,0,-0.4988,-0.4989,0,-0.505,-0.505,-0.5051,-0.5056,-0.5055,-0.5055,-0.5054,-0.5121,-0.5123,-0.5126,0,0,0,0,0,0,0,0,0,0,0,0,0,-0.4879,-0.4881,-0.4988,-0.4989,-0.499,-0.505,-0.5051,-0.5051,-0.5056,-0.5055,-0.5055,-0.5054,-0.512,-0.5123,-0.5126,0,0,0,0,0,0,0,0,0,0,0,0,0,-0.4932,-0.4881,-0.4988,-0.4999,-0.5001,-0.5049,-0.5051,-0.5052,-0.5056,-0.5055,-0.5054,-0.5053,-0.5119,-0.5123,-0.5126,-0.5169,0,0,-0.5137,-0.5139,0,0,0,0,0,0,0,0,-0.4929,-0.4936,-0.4997,-0.4999,-0.5001,-0.5044,-0.5036,-0.5091,-0.5057,-0.5036,-0.5054,-0.5053,-0.5096,-0.5102,-0.5116,-0.5172,-0.5175,-0.5138,-0.514,-0.5141,-0.5142,0,0,0,0,0,0,0,-0.4925,-0.4933,-0.5013,-0.4998,-0.5,-0.5002,-0.5009,-0.5047,-0.5071,-0.5037,-0.5038,-0.5045,-0.5097,-0.5112,-0.5117,-0.5176,-0.5138,-0.5141,-0.5143,-0.5144,-0.5271,-0.5272,0,0,0,0,0,0,-0.4919,-0.493,-0.5011,-0.5015,-0.4961,-0.5005,-0.5012,-0.5031,-0.5071,-0.5076,-0.5046,-0.5045,-0.5107,-0.5113,-0.512,-0.5173,-0.5141,-0.5145,-0.5147,-0.527,-0.5271,-0.5272,0,0,0,0,0,0,-0.4916,-0.4926,-0.5008,-0.4973,-0.4983,-0.5008,-0.5029,-0.5033,-0.5048,-0.5077,-0.5082,-0.5056,-0.5106,-0.5115,-0.5157,-0.5175,-0.5146,-0.515,-0.5268,-0.527,-0.5272,-0.5279,0,0,0,0,0,0,-0.4913,-0.4925,-0.4941,-0.4973,-0.4985,-0.5043,-0.503,-0.5035,-0.5054,-0.5053,-0.5088,-0.5093,-0.5106,-0.5151,-0.516,-0.518,-0.5153,-0.5267,-0.5269,-0.5271,-0.5277,-0.528,-0.5283,0,0,0,0,0,-0.4909,-0.4941,-0.4942,-0.4951,-0.5005,-0.5044,-0.5051,-0.5064,-0.5055,-0.5072,-0.509,-0.5092,-0.5171,-0.5155,-0.5166,-0.5186,-0.5266,-0.5268,-0.5271,-0.5275,-0.528,-0.5283,0,0,0,0,0,0,-0.4912,-0.4946,-0.4946,-0.4989,-0.5014,-0.5045,-0.5066,-0.5069,-0.5097,-0.5096,-0.5112,-0.512,-0.5161,-0.5178,-0.5159,-0.523,-0.5218,-0.5222,-0.5218,-0.5222,-0.5225,-0.5221,-0.5156,0,0,0,0,0,-0.4918,-0.4945,-0.4973,-0.5009,-0.5021,-0.5041,-0.5059,-0.5067,-0.5093,-0.5104,-0.5125,-0.5152,-0.5183,-0.5203,-0.5233,-0.5279,-0.5287,-0.5298,-0.5302,-0.5304,-0.5309,-0.5334,-0.534,-0.5281,-0.5281,-0.5281,0,0,-0.493,-0.4951,-0.4968,-0.501,-0.503,-0.5059,-0.505,-0.5082,-0.5104,-0.5109,-0.515,-0.5166,-0.5197,-0.5241,-0.5262,-0.5256,-0.5326,-0.5307,-0.5309,-0.5312,-0.5338,-0.5343,-0.5348,-0.5283,-0.5283,-0.5282,0,0,-0.4967,-0.4985,-0.5017,-0.5036,-0.5066,-0.5079,-0.5087,-0.5117,-0.5128,-0.5169,-0.5173,-0.52,-0.5253,-0.5275,-0.5293,-0.5337,-0.534,-0.5347,-0.5365,-0.5389,-0.5394,-0.5398,-0.5415,-0.542,-0.5351,-0.5351,-0.5351,0,-0.4978,-0.5022,-0.5033,-0.5064,-0.5083,-0.5087,-0.512,-0.5138,-0.5177,-0.519,-0.5183,-0.5249,-0.527,-0.532,-0.533,-0.5344,-0.5354,-0.5344,-0.5392,-0.5397,-0.5401,-0.5417,-0.5423,-0.5351,-0.5351,-0.5351,-0.5351,0,-0.5035,-0.5065,-0.5087,-0.5122,-0.5143,-0.5175,-0.5192,-0.5212,-0.5218,-0.5232,-0.5274,-0.5299,-0.5334,-0.5346,-0.5353,-0.5397,-0.5392,-0.5389,-0.5377,-0.5407,-0.5422,-0.5428,-0.5352,-0.5352,-0.5352,-0.5352,0,0,-0.5077,-0.5117,-0.5125,-0.5141,-0.5173,-0.5198,-0.523,-0.5263,-0.528,-0.5306,-0.5334,-0.5378,-0.5375,-0.5395,-0.5404,-0.5426,-0.546,-0.542,-0.5421,-0.5427,-0.5511,-0.5514,-0.5521,-0.5461,-0.5463,-0.5464,-0.5508,0,-0.5118,-0.5174,-0.5185,-0.5234,-0.5262,-0.5266,-0.5295,-0.5318,-0.5332,-0.5359,-0.5375,-0.5406,-0.5399,-0.5411,-0.5433,-0.5451,-0.5477,-0.5448,-0.5489,-0.549,-0.5482,-0.5529,-0.5532,-0.5573,-0.5514,-0.5515,-0.5516,0,-0.5174,-0.52,-0.5251,-0.528,-0.5292,-0.5317,-0.5348,-0.5373,-0.54,-0.5409,-0.5431,-0.5438,-0.5472,-0.5458,-0.5506,-0.5486,-0.5503,-0.5515,-0.5517,-0.5522,-0.5506,-0.5536,-0.5587,-0.5593,-0.5525,-0.5525,-0.5524,0,-0.52,-0.5248,-0.5285,-0.5299,-0.5333,-0.535,-0.5365,-0.5391,-0.541,-0.5438,-0.545,-0.5482,-0.55,-0.5524,-0.5539,-0.5527,-0.5587,-0.5574,-0.5596,-0.5596,-0.561,-0.5609,-0.5665,-0.5619,-0.5619,-0.5619,-0.5619,0,-0.5246,-0.5277,-0.5297,-0.532,-0.5356,-0.5368,-0.5404,-0.5419,-0.5442,-0.5469,-0.5474,-0.5499,-0.5517,-0.5545,-0.5557,-0.5596,-0.5604,-0.5613,-0.5616,-0.5613,-0.5612,-0.5625,-0.5623,-0.5621,-0.562,-0.562,-0.562,0,-0.5282,-0.5296,-0.5337,-0.5365,-0.5373,-0.5398,-0.5423,-0.5446,-0.5459,-0.5493,-0.5502,-0.5524,-0.5557,-0.5574,-0.5616,-0.5624,-0.5667,-0.5668,-0.5658,-0.566,-0.5682,-0.568,-0.5749,-0.5759,-0.5706,-0.5706,-0.5707,0,-0.531,-0.5335,-0.5365,-0.5382,-0.5397,-0.5426,-0.5445,-0.5458,-0.5478,-0.551,-0.5529,-0.5562,-0.559,-0.5643,-0.5663,-0.5695,-0.5698,-0.572,-0.5703,-0.5699,-0.5699,-0.5698,-0.5701,-0.5723,-0.5724,-0.5724,-0.5724,0,-0.536,-0.5366,-0.5392,-0.5421,-0.5444,-0.5468,-0.5491,-0.5506,-0.5523,-0.5545,-0.5578,-0.5599,-0.5641,-0.5674,-0.5708,-0.5724,-0.5728,-0.5729,-0.5736,-0.5734,-0.5728,-0.5732,-0.5667,-0.5728,-0.5728,-0.5727,-0.5727,-0.5727,-0.5394,-0.5416,-0.544,-0.547,-0.5488,-0.551,-0.5533,-0.5549,-0.5576,-0.561,-0.5617,-0.5652,-0.5679,-0.5723,-0.5741,-0.577,-0.5765,-0.5775,-0.5778,-0.5781,-0.5782,-0.5722,-0.5776,-0.5776,-0.5776,-0.5776,-0.5776,0,-0.5444,-0.546,-0.5487,-0.5519,-0.5542,-0.5541,-0.5567,-0.5587,-0.5618,-0.5642,-0.5668,-0.5706,-0.5738,-0.5761,-0.5793,-0.5812,-0.5815,-0.582,-0.582,-0.5824,-0.5784,-0.5775,-0.5818,-0.5818,-0.5818,-0.5818,-0.5818,-0.5818,-0.5473,-0.551,-0.5519,-0.5565,-0.5581,-0.5615,-0.563,-0.565,-0.5669,-0.5711,-0.5737,-0.5751,-0.5774,-0.5809,-0.5838,-0.5844,-0.5856,-0.5862,-0.5868,-0.5831,-0.5827,-0.5822,-0.5814,-0.5865,-0.5865,-0.5906,-0.5906,-0.5907]},{"header":{"parameterUnit":"m.s-1","parameterCategory":1,"la1":30.2991,"la2":30.254,"lo1":-89.0895,"lo2":-89.0444,"dy":0.0017,"dx":0.0017,"nx":28,"ny":28,"refTime":"2024-12-19T03:00:00:Z","depth":0,"parameterNumber":3,"parameterNumberName":"V-component_of_WINDS"},"data":[0,0,0,0,0,0,0,0,0,0,0,0,0,0,0,0,0,0,0,0,0,0,0,0,0,0,0,0,0,0,0,0,0,0,0,0,0,0,0,0,0,0,0,0,0,0,0,0,0,0,0,0,0,0,0,0,0,0,-4.8076,-4.8077,0,-4.8166,-4.8167,-4.8168,-4.8152,-4.815,-4.8149,-4.8147,-4.8234,-4.8238,-4.8242,0,0,0,0,0,0,0,0,0,0,0,0,0,-4.7883,-4.7887,-4.8075,-4.8077,-4.8078,-4.8166,-4.8167,-4.8169,-4.8152,-4.815,-4.8148,-4.8146,-4.8233,-4.8238,-4.8242,0,0,0,0,0,0,0,0,0,0,0,0,0,-4.7969,-4.7888,-4.8075,-4.808,-4.8082,-4.8166,-4.8168,-4.8169,-4.8153,-4.815,-4.8148,-4.8146,-4.8232,-4.8237,-4.8243,-4.8326,0,0,-4.826,-4.8263,0,0,0,0,0,0,0,0,-4.7964,-4.7976,-4.8078,-4.808,-4.8082,-4.8146,-4.8132,-4.8221,-4.8153,-4.8125,-4.8147,-4.8144,-4.8206,-4.8214,-4.8236,-4.833,-4.8334,-4.8261,-4.8264,-4.8267,-4.8268,0,0,0,0,0,0,0,-4.7958,-4.7972,-4.8111,-4.808,-4.8082,-4.8076,-4.8086,-4.8148,-4.8178,-4.8128,-4.8127,-4.8138,-4.8207,-4.8231,-4.8238,-4.8335,-4.8261,-4.8266,-4.8269,-4.8271,-4.8503,-4.8505,0,0,0,0,0,0,-4.7952,-4.7967,-4.8108,-4.8114,-4.8016,-4.8082,-4.8093,-4.8127,-4.8177,-4.8183,-4.814,-4.8137,-4.8222,-4.8231,-4.8241,-4.8343,-4.8267,-4.8272,-4.8275,-4.85,-4.8503,-4.8506,0,0,0,0,0,0,-4.7948,-4.7964,-4.8105,-4.8041,-4.8058,-4.8088,-4.8127,-4.813,-4.8154,-4.8187,-4.8191,-4.8159,-4.822,-4.8233,-4.8306,-4.8345,-4.8274,-4.828,-4.8497,-4.8501,-4.8505,-4.8546,0,0,0,0,0,0,-4.7942,-4.7963,-4.7996,-4.8042,-4.8062,-4.8169,-4.8129,-4.8134,-4.8165,-4.8162,-4.8206,-4.8211,-4.822,-4.8297,-4.8311,-4.8352,-4.8284,-4.8493,-4.8499,-4.8504,-4.8542,-4.8551,-4.856,0,0,0,0,0,-4.7935,-4.8002,-4.7998,-4.8015,-4.8104,-4.8172,-4.8183,-4.8193,-4.8168,-4.8201,-4.8222,-4.821,-4.8339,-4.8305,-4.832,-4.8364,-4.8491,-4.8497,-4.8503,-4.8537,-4.8549,-4.856,0,0,0,0,0,0,-4.7958,-4.8008,-4.8004,-4.8088,-4.8126,-4.8169,-4.8211,-4.8205,-4.825,-4.8245,-4.8253,-4.8264,-4.8338,-4.8358,-4.8319,-4.8447,-4.8411,-4.8421,-4.8432,-4.8443,-4.8452,-4.8446,-4.8289,0,0,0,0,0,-4.7973,-4.8026,-4.8066,-4.8137,-4.8156,-4.818,-4.821,-4.8215,-4.8254,-4.8269,-4.8296,-4.8332,-4.8381,-4.8413,-4.846,-4.8544,-4.8554,-4.8582,-4.8591,-4.8598,-4.8606,-4.8653,-4.8666,-4.8526,-4.8526,-4.8526,0,0,-4.8004,-4.8038,-4.8071,-4.8142,-4.8172,-4.8226,-4.8194,-4.8251,-4.8291,-4.8277,-4.8349,-4.8369,-4.8411,-4.849,-4.8526,-4.8509,-4.8647,-4.8606,-4.8611,-4.8616,-4.8661,-4.8674,-4.8686,-4.8531,-4.853,-4.8529,0,0,-4.8089,-4.812,-4.8183,-4.8214,-4.8261,-4.8277,-4.8292,-4.8337,-4.8351,-4.8423,-4.8415,-4.846,-4.8544,-4.8575,-4.8601,-4.8699,-4.869,-4.8714,-4.8762,-4.8807,-4.8818,-4.8828,-4.8864,-4.8877,-4.8722,-4.8722,-4.8722,0,-4.8121,-4.8203,-4.8215,-4.8275,-4.8306,-4.8299,-4.8363,-4.8392,-4.8451,-4.8472,-4.8452,-4.8559,-4.8586,-4.8673,-4.8698,-4.8719,-4.8736,-4.8709,-4.8816,-4.8826,-4.8835,-4.887,-4.8883,-4.8725,-4.8724,-4.8724,-4.8724,0,-4.8241,-4.8298,-4.8343,-4.8403,-4.844,-4.85,-4.8521,-4.8556,-4.8558,-4.8575,-4.8649,-4.8682,-4.8736,-4.8756,-4.8757,-4.8844,-4.8832,-4.8814,-4.8778,-4.8851,-4.8884,-4.8897,-4.8729,-4.8728,-4.8727,-4.8726,0,0,-4.8341,-4.841,-4.8426,-4.8454,-4.8506,-4.8549,-4.861,-4.8665,-4.8696,-4.8736,-4.8787,-4.8859,-4.8844,-4.8874,-4.8878,-4.8918,-4.8995,-4.8896,-4.8897,-4.8914,-4.9093,-4.9107,-4.9122,-4.8989,-4.8991,-4.8993,-4.909,0,-4.8432,-4.8541,-4.8554,-4.8651,-4.8704,-4.8699,-4.8751,-4.8788,-4.8807,-4.8853,-4.8872,-4.8923,-4.8898,-4.8917,-4.8956,-4.8977,-4.9031,-4.897,-4.9035,-4.9038,-4.9026,-4.9139,-4.9153,-4.9243,-4.9102,-4.9105,-4.9106,0,-4.8551,-4.8599,-4.8702,-4.8749,-4.8771,-4.8819,-4.8871,-4.8916,-4.8957,-4.8968,-4.9003,-4.9002,-4.9064,-4.9025,-4.911,-4.9068,-4.9095,-4.911,-4.9113,-4.912,-4.9077,-4.9149,-4.9271,-4.9285,-4.9126,-4.9124,-4.9123,0,-4.8616,-4.8705,-4.8779,-4.8803,-4.8859,-4.8892,-4.8917,-4.8956,-4.8989,-4.9034,-4.9056,-4.9106,-4.9134,-4.9172,-4.9186,-4.9156,-4.927,-4.9232,-4.9279,-4.9279,-4.9304,-4.9302,-4.9433,-4.932,-4.932,-4.932,-4.9319,0,-4.8716,-4.8779,-4.8809,-4.8855,-4.8925,-4.8939,-4.9008,-4.903,-4.9066,-4.9115,-4.9112,-4.9157,-4.9172,-4.9219,-4.9229,-4.9298,-4.931,-4.932,-4.9322,-4.9321,-4.932,-4.9339,-4.9333,-4.9323,-4.9322,-4.9322,-4.9321,0,-4.88,-4.8823,-4.8903,-4.895,-4.8963,-4.9014,-4.9053,-4.9096,-4.9114,-4.9176,-4.9191,-4.9219,-4.9275,-4.9292,-4.9358,-4.9365,-4.9446,-4.9442,-4.9433,-4.9433,-4.948,-4.9476,-4.9628,-4.9649,-4.9522,-4.9523,-4.9524,0,-4.8862,-4.8911,-4.8965,-4.8999,-4.9026,-4.9079,-4.9114,-4.9129,-4.9165,-4.9217,-4.9254,-4.931,-4.9355,-4.9445,-4.947,-4.952,-4.9518,-4.9568,-4.9525,-4.9523,-4.952,-4.9517,-4.9522,-4.9576,-4.9577,-4.9578,-4.9579,0,-4.8971,-4.8981,-4.9032,-4.9088,-4.913,-4.9173,-4.9215,-4.9242,-4.9264,-4.9304,-4.9362,-4.9398,-4.9468,-4.9523,-4.9575,-4.9598,-4.9592,-4.9593,-4.9606,-4.9606,-4.9599,-4.9605,-4.9456,-4.9589,-4.9588,-4.9587,-4.9587,-4.9586,-4.9047,-4.9091,-4.9137,-4.9194,-4.9228,-4.9268,-4.9312,-4.9336,-4.9386,-4.9446,-4.9451,-4.9515,-4.9555,-4.9625,-4.9651,-4.97,-4.9685,-4.9705,-4.971,-4.9715,-4.972,-4.9591,-4.9709,-4.9709,-4.9709,-4.9709,-4.9708,0,-4.9157,-4.9186,-4.9239,-4.93,-4.9345,-4.9338,-4.9385,-4.9422,-4.9479,-4.9519,-4.9565,-4.9632,-4.9686,-4.9716,-4.977,-4.9803,-4.9802,-4.9817,-4.9815,-4.9821,-4.9729,-4.9712,-4.9817,-4.9817,-4.9817,-4.9817,-4.9817,-4.9817,-4.9219,-4.9294,-4.9309,-4.9401,-4.9429,-4.9494,-4.9521,-4.9558,-4.959,-4.9667,-4.9713,-4.9733,-4.9769,-4.9825,-4.9874,-4.9881,-4.9902,-4.9918,-4.9924,-4.9838,-4.9827,-4.9816,-4.9801,-4.9922,-4.9923,-5.0012,-5.0012,-5.0013]}]]